Year,Month,Day,Hour,Minute,Value (Times are PST for temperature in C)
2014,07,22,00,00,15.30
2014,07,22,00,01,15.30
2014,07,22,00,02,15.30
2014,07,22,00,03,15.20
2014,07,22,00,04,15.20
2014,07,22,00,05,15.20
2014,07,22,00,06,15.20
2014,07,22,00,07,15.20
2014,07,22,00,08,15.20
2014,07,22,00,09,15.20
2014,07,22,00,10,15.20
2014,07,22,00,11,15.20
2014,07,22,00,12,15.20
2014,07,22,00,13,15.20
2014,07,22,00,14,15.10
2014,07,22,00,15,15.10
2014,07,22,00,16,15.10
2014,07,22,00,17,15.10
2014,07,22,00,18,15.10
2014,07,22,00,19,15.10
2014,07,22,00,20,15.10
2014,07,22,00,21,15.10
2014,07,22,00,22,15.10
2014,07,22,00,23,15.10
2014,07,22,00,24,15.10
2014,07,22,00,25,15.20
2014,07,22,00,26,15.20
2014,07,22,00,27,15.20
2014,07,22,00,28,15.20
2014,07,22,00,29,15.20
2014,07,22,00,30,15.20
2014,07,22,00,31,15.20
2014,07,22,00,32,15.20
2014,07,22,00,33,15.10
2014,07,22,00,34,15.10
2014,07,22,00,35,15.10
2014,07,22,00,36,15.10
2014,07,22,00,37,15.10
2014,07,22,00,38,15.00
2014,07,22,00,39,15.00
2014,07,22,00,40,15.00
2014,07,22,00,41,14.90
2014,07,22,00,42,14.90
2014,07,22,00,43,14.80
2014,07,22,00,44,14.80
2014,07,22,00,45,14.80
2014,07,22,00,46,14.80
2014,07,22,00,47,14.80
2014,07,22,00,48,14.70
2014,07,22,00,49,14.70
2014,07,22,00,50,14.60
2014,07,22,00,51,14.60
2014,07,22,00,52,14.60
2014,07,22,00,53,14.50
2014,07,22,00,54,14.50
2014,07,22,00,55,14.40
2014,07,22,00,56,14.40
2014,07,22,00,57,14.40
2014,07,22,00,58,14.30
2014,07,22,00,59,14.30
2014,07,22,01,00,14.20
2014,07,22,01,01,14.20
2014,07,22,01,02,14.20
2014,07,22,01,03,14.20
2014,07,22,01,04,14.20
2014,07,22,01,05,14.20
2014,07,22,01,06,14.10
2014,07,22,01,07,14.10
2014,07,22,01,08,14.10
2014,07,22,01,09,14.00
2014,07,22,01,10,14.00
2014,07,22,01,11,14.00
2014,07,22,01,12,13.90
2014,07,22,01,13,13.90
2014,07,22,01,14,13.90
2014,07,22,01,15,13.90
2014,07,22,01,16,13.80
2014,07,22,01,17,13.80
2014,07,22,01,18,13.80
2014,07,22,01,19,13.80
2014,07,22,01,20,13.70
2014,07,22,01,21,13.70
2014,07,22,01,22,13.70
2014,07,22,01,23,13.70
2014,07,22,01,24,13.70
2014,07,22,01,25,13.70
2014,07,22,01,26,13.70
2014,07,22,01,27,13.60
2014,07,22,01,28,13.60
2014,07,22,01,29,13.60
2014,07,22,01,30,13.60
2014,07,22,01,31,13.60
2014,07,22,01,32,13.50
2014,07,22,01,33,13.50
2014,07,22,01,34,13.50
2014,07,22,01,35,13.50
2014,07,22,01,36,13.40
2014,07,22,01,37,13.40
2014,07,22,01,38,13.40
2014,07,22,01,39,13.30
2014,07,22,01,40,13.30
2014,07,22,01,41,13.30
2014,07,22,01,42,13.30
2014,07,22,01,43,13.30
2014,07,22,01,44,13.30
2014,07,22,01,45,13.20
2014,07,22,01,46,13.20
2014,07,22,01,47,13.20
2014,07,22,01,48,13.20
2014,07,22,01,49,13.10
2014,07,22,01,50,13.10
2014,07,22,01,51,13.10
2014,07,22,01,52,13.10
2014,07,22,01,53,13.00
2014,07,22,01,54,13.00
2014,07,22,01,55,13.00
2014,07,22,01,56,13.00
2014,07,22,01,57,12.90
2014,07,22,01,58,12.90
2014,07,22,01,59,12.90
2014,07,22,02,00,12.90
2014,07,22,02,01,12.90
2014,07,22,02,02,12.80
2014,07,22,02,03,12.80
2014,07,22,02,04,12.80
2014,07,22,02,05,12.80
2014,07,22,02,06,12.80
2014,07,22,02,07,12.80
2014,07,22,02,08,12.80
2014,07,22,02,09,12.80
2014,07,22,02,10,12.80
2014,07,22,02,11,12.80
2014,07,22,02,12,12.80
2014,07,22,02,13,12.80
2014,07,22,02,14,12.80
2014,07,22,02,15,12.80
2014,07,22,02,16,12.80
2014,07,22,02,17,12.70
2014,07,22,02,18,12.70
2014,07,22,02,19,12.70
2014,07,22,02,20,12.70
2014,07,22,02,21,12.70
2014,07,22,02,22,12.70
2014,07,22,02,23,12.70
2014,07,22,02,24,12.70
2014,07,22,02,25,12.60
2014,07,22,02,26,12.60
2014,07,22,02,27,12.60
2014,07,22,02,28,12.60
2014,07,22,02,29,12.60
2014,07,22,02,30,12.60
2014,07,22,02,31,12.50
2014,07,22,02,32,12.50
2014,07,22,02,33,12.50
2014,07,22,02,34,12.50
2014,07,22,02,35,12.50
2014,07,22,02,36,12.50
2014,07,22,02,37,12.40
2014,07,22,02,38,12.40
2014,07,22,02,39,12.40
2014,07,22,02,40,12.40
2014,07,22,02,41,12.30
2014,07,22,02,42,12.30
2014,07,22,02,43,12.30
2014,07,22,02,44,12.30
2014,07,22,02,45,12.30
2014,07,22,02,46,12.30
2014,07,22,02,47,12.30
2014,07,22,02,48,12.30
2014,07,22,02,49,12.30
2014,07,22,02,50,12.40
2014,07,22,02,51,12.50
2014,07,22,02,52,12.50
2014,07,22,02,53,12.60
2014,07,22,02,54,12.70
2014,07,22,02,55,12.80
2014,07,22,02,56,12.90
2014,07,22,02,57,13.00
2014,07,22,02,58,13.10
2014,07,22,02,59,13.20
2014,07,22,03,00,13.30
2014,07,22,03,01,13.40
2014,07,22,03,02,13.50
2014,07,22,03,03,13.60
2014,07,22,03,04,13.70
2014,07,22,03,05,13.70
2014,07,22,03,06,13.80
2014,07,22,03,07,13.90
2014,07,22,03,08,14.00
2014,07,22,03,09,14.00
2014,07,22,03,10,14.10
2014,07,22,03,11,14.20
2014,07,22,03,12,14.20
2014,07,22,03,13,14.30
2014,07,22,03,14,14.40
2014,07,22,03,15,14.50
2014,07,22,03,16,14.50
2014,07,22,03,17,14.50
2014,07,22,03,18,14.60
2014,07,22,03,19,14.60
2014,07,22,03,20,14.70
2014,07,22,03,21,14.70
2014,07,22,03,22,14.80
2014,07,22,03,23,14.80
2014,07,22,03,24,14.80
2014,07,22,03,25,14.80
2014,07,22,03,26,14.90
2014,07,22,03,27,14.90
2014,07,22,03,28,14.90
2014,07,22,03,29,14.90
2014,07,22,03,30,15.00
2014,07,22,03,31,15.00
2014,07,22,03,32,15.00
2014,07,22,03,33,15.00
2014,07,22,03,34,15.00
2014,07,22,03,35,15.10
2014,07,22,03,36,15.10
2014,07,22,03,37,15.10
2014,07,22,03,38,15.10
2014,07,22,03,39,15.10
2014,07,22,03,40,15.20
2014,07,22,03,41,15.20
2014,07,22,03,42,15.20
2014,07,22,03,43,15.20
2014,07,22,03,44,15.20
2014,07,22,03,45,15.20
2014,07,22,03,46,15.30
2014,07,22,03,47,15.30
2014,07,22,03,48,15.30
2014,07,22,03,49,15.30
2014,07,22,03,50,15.30
2014,07,22,03,51,15.30
2014,07,22,03,52,15.30
2014,07,22,03,53,15.30
2014,07,22,03,54,15.30
2014,07,22,03,55,15.30
2014,07,22,03,56,15.30
2014,07,22,03,57,15.30
2014,07,22,03,58,15.30
2014,07,22,03,59,15.30
2014,07,22,04,00,15.30
2014,07,22,04,01,15.30
2014,07,22,04,02,15.30
2014,07,22,04,03,15.30
2014,07,22,04,04,15.30
2014,07,22,04,05,15.30
2014,07,22,04,06,15.30
2014,07,22,04,07,15.30
2014,07,22,04,08,15.30
2014,07,22,04,09,15.30
2014,07,22,04,10,15.30
2014,07,22,04,11,15.30
2014,07,22,04,12,15.30
2014,07,22,04,13,15.30
2014,07,22,04,14,15.30
2014,07,22,04,15,15.30
2014,07,22,04,16,15.30
2014,07,22,04,17,15.30
2014,07,22,04,18,15.30
2014,07,22,04,19,15.30
2014,07,22,04,20,15.30
2014,07,22,04,21,15.30
2014,07,22,04,22,15.30
2014,07,22,04,23,15.30
2014,07,22,04,24,15.30
2014,07,22,04,25,15.40
2014,07,22,04,26,15.40
2014,07,22,04,27,15.40
2014,07,22,04,28,15.40
2014,07,22,04,29,15.40
2014,07,22,04,30,15.50
2014,07,22,04,31,15.50
2014,07,22,04,32,15.50
2014,07,22,04,33,15.50
2014,07,22,04,34,15.50
2014,07,22,04,35,15.50
2014,07,22,04,36,15.50
2014,07,22,04,37,15.40
2014,07,22,04,38,15.40
2014,07,22,04,39,15.40
2014,07,22,04,40,15.40
2014,07,22,04,41,15.40
2014,07,22,04,42,15.40
2014,07,22,04,43,15.30
2014,07,22,04,44,15.30
2014,07,22,04,45,15.30
2014,07,22,04,46,15.30
2014,07,22,04,47,15.30
2014,07,22,04,48,15.30
2014,07,22,04,49,15.30
2014,07,22,04,50,15.30
2014,07,22,04,51,15.30
2014,07,22,04,52,15.30
2014,07,22,04,53,15.30
2014,07,22,04,54,15.30
2014,07,22,04,55,15.30
2014,07,22,04,56,15.30
2014,07,22,04,57,15.30
2014,07,22,04,58,15.30
2014,07,22,04,59,15.30
2014,07,22,05,00,15.30
2014,07,22,05,01,15.30
2014,07,22,05,02,15.30
2014,07,22,05,03,15.30
2014,07,22,05,04,15.30
2014,07,22,05,05,15.30
2014,07,22,05,06,15.30
2014,07,22,05,07,15.30
2014,07,22,05,08,15.30
2014,07,22,05,09,15.30
2014,07,22,05,10,15.30
2014,07,22,05,11,15.30
2014,07,22,05,12,15.30
2014,07,22,05,13,15.30
2014,07,22,05,14,15.30
2014,07,22,05,15,15.30
2014,07,22,05,16,15.30
2014,07,22,05,17,15.30
2014,07,22,05,18,15.20
2014,07,22,05,19,15.20
2014,07,22,05,20,15.20
2014,07,22,05,21,15.20
2014,07,22,05,22,15.20
2014,07,22,05,23,15.20
2014,07,22,05,24,15.20
2014,07,22,05,25,15.20
2014,07,22,05,26,15.20
2014,07,22,05,27,15.20
2014,07,22,05,28,15.20
2014,07,22,05,29,15.20
2014,07,22,05,30,15.20
2014,07,22,05,31,15.20
2014,07,22,05,32,15.20
2014,07,22,05,33,15.20
2014,07,22,05,34,15.10
2014,07,22,05,35,15.10
2014,07,22,05,36,15.10
2014,07,22,05,37,15.10
2014,07,22,05,38,15.10
2014,07,22,05,39,15.10
2014,07,22,05,40,15.10
2014,07,22,05,41,15.10
2014,07,22,05,42,15.10
2014,07,22,05,43,15.10
2014,07,22,05,44,15.10
2014,07,22,05,45,15.10
2014,07,22,05,46,15.10
2014,07,22,05,47,15.10
2014,07,22,05,48,15.00
2014,07,22,05,49,15.00
2014,07,22,05,50,15.00
2014,07,22,05,51,15.00
2014,07,22,05,52,15.00
2014,07,22,05,53,15.00
2014,07,22,05,54,15.00
2014,07,22,05,55,15.00
2014,07,22,05,56,15.00
2014,07,22,05,57,14.90
2014,07,22,05,58,14.90
2014,07,22,05,59,14.90
2014,07,22,06,00,14.90
2014,07,22,06,01,14.90
2014,07,22,06,02,14.90
2014,07,22,06,03,14.90
2014,07,22,06,04,14.90
2014,07,22,06,05,14.80
2014,07,22,06,06,14.80
2014,07,22,06,07,14.80
2014,07,22,06,08,14.80
2014,07,22,06,09,14.80
2014,07,22,06,10,14.80
2014,07,22,06,11,14.80
2014,07,22,06,12,14.80
2014,07,22,06,13,14.80
2014,07,22,06,14,14.80
2014,07,22,06,15,14.70
2014,07,22,06,16,14.70
2014,07,22,06,17,14.70
2014,07,22,06,18,14.70
2014,07,22,06,19,14.70
2014,07,22,06,20,14.60
2014,07,22,06,21,14.60
2014,07,22,06,22,14.60
2014,07,22,06,23,14.60
2014,07,22,06,24,14.60
2014,07,22,06,25,14.60
2014,07,22,06,26,14.60
2014,07,22,06,27,14.60
2014,07,22,06,28,14.60
2014,07,22,06,29,14.60
2014,07,22,06,30,14.60
2014,07,22,06,31,14.60
2014,07,22,06,32,14.60
2014,07,22,06,33,14.60
2014,07,22,06,34,14.60
2014,07,22,06,35,14.60
2014,07,22,06,36,14.60
2014,07,22,06,37,14.60
2014,07,22,06,38,14.70
2014,07,22,06,39,14.70
2014,07,22,06,40,14.70
2014,07,22,06,41,14.80
2014,07,22,06,42,14.80
2014,07,22,06,43,14.80
2014,07,22,06,44,14.80
2014,07,22,06,45,14.90
2014,07,22,06,46,14.90
2014,07,22,06,47,15.00
2014,07,22,06,48,15.00
2014,07,22,06,49,15.00
2014,07,22,06,50,15.10
2014,07,22,06,51,15.10
2014,07,22,06,52,15.10
2014,07,22,06,53,15.10
2014,07,22,06,54,15.20
2014,07,22,06,55,15.20
2014,07,22,06,56,15.20
2014,07,22,06,57,15.30
2014,07,22,06,58,15.30
2014,07,22,06,59,15.30
2014,07,22,07,00,15.40
2014,07,22,07,01,15.40
2014,07,22,07,02,15.50
2014,07,22,07,03,15.50
2014,07,22,07,04,15.50
2014,07,22,07,05,15.60
2014,07,22,07,06,15.60
2014,07,22,07,07,15.70
2014,07,22,07,08,15.70
2014,07,22,07,09,15.80
2014,07,22,07,10,15.80
2014,07,22,07,11,15.80
2014,07,22,07,12,15.80
2014,07,22,07,13,15.80
2014,07,22,07,14,15.90
2014,07,22,07,15,15.90
2014,07,22,07,16,16.00
2014,07,22,07,17,16.10
2014,07,22,07,18,16.10
2014,07,22,07,19,16.20
2014,07,22,07,20,16.20
2014,07,22,07,21,16.30
2014,07,22,07,22,16.30
2014,07,22,07,23,16.30
2014,07,22,07,24,16.40
2014,07,22,07,25,16.40
2014,07,22,07,26,16.40
2014,07,22,07,27,16.50
2014,07,22,07,28,16.60
2014,07,22,07,29,16.60
2014,07,22,07,30,16.70
2014,07,22,07,31,16.70
2014,07,22,07,32,16.70
2014,07,22,07,33,16.70
2014,07,22,07,34,16.70
2014,07,22,07,35,16.70
2014,07,22,07,36,16.70
2014,07,22,07,37,16.80
2014,07,22,07,38,16.80
2014,07,22,07,39,16.80
2014,07,22,07,40,16.80
2014,07,22,07,41,16.80
2014,07,22,07,42,16.90
2014,07,22,07,43,16.90
2014,07,22,07,44,17.00
2014,07,22,07,45,17.00
2014,07,22,07,46,17.10
2014,07,22,07,47,17.10
2014,07,22,07,48,17.10
2014,07,22,07,49,17.10
2014,07,22,07,50,17.10
2014,07,22,07,51,17.10
2014,07,22,07,52,17.10
2014,07,22,07,53,17.10
2014,07,22,07,54,17.10
2014,07,22,07,55,17.20
2014,07,22,07,56,17.20
2014,07,22,07,57,17.30
2014,07,22,07,58,17.30
2014,07,22,07,59,17.30
2014,07,22,08,00,17.30
2014,07,22,08,01,17.30
2014,07,22,08,02,17.30
2014,07,22,08,03,17.30
2014,07,22,08,04,17.40
2014,07,22,08,05,17.40
2014,07,22,08,06,17.50
2014,07,22,08,07,17.50
2014,07,22,08,08,17.70
2014,07,22,08,09,17.70
2014,07,22,08,10,17.80
2014,07,22,08,11,17.90
2014,07,22,08,12,17.90
2014,07,22,08,13,17.90
2014,07,22,08,14,17.80
2014,07,22,08,15,17.80
2014,07,22,08,16,17.90
2014,07,22,08,17,17.90
2014,07,22,08,18,17.90
2014,07,22,08,19,17.90
2014,07,22,08,20,17.90
2014,07,22,08,21,17.90
2014,07,22,08,22,17.90
2014,07,22,08,23,18.10
2014,07,22,08,24,18.00
2014,07,22,08,25,18.10
2014,07,22,08,26,18.10
2014,07,22,08,27,18.10
2014,07,22,08,28,18.10
2014,07,22,08,29,18.10
2014,07,22,08,30,18.10
2014,07,22,08,31,18.10
2014,07,22,08,32,18.10
2014,07,22,08,33,18.10
2014,07,22,08,34,18.10
2014,07,22,08,35,18.10
2014,07,22,08,36,18.20
2014,07,22,08,37,18.20
2014,07,22,08,38,18.20
2014,07,22,08,39,18.20
2014,07,22,08,40,18.20
2014,07,22,08,41,18.20
2014,07,22,08,42,18.20
2014,07,22,08,43,18.20
2014,07,22,08,44,18.20
2014,07,22,08,45,18.20
2014,07,22,08,46,18.20
2014,07,22,08,47,18.20
2014,07,22,08,48,18.20
2014,07,22,08,49,18.20
2014,07,22,08,50,18.20
2014,07,22,08,51,18.20
2014,07,22,08,52,18.20
2014,07,22,08,53,18.20
2014,07,22,08,54,18.20
2014,07,22,08,55,18.20
2014,07,22,08,56,18.20
2014,07,22,08,57,18.30
2014,07,22,08,58,18.30
2014,07,22,08,59,18.30
2014,07,22,09,00,18.20
2014,07,22,09,01,18.20
2014,07,22,09,02,18.20
2014,07,22,09,03,18.20
2014,07,22,09,04,18.20
2014,07,22,09,05,18.20
2014,07,22,09,06,18.20
2014,07,22,09,07,18.20
2014,07,22,09,08,18.20
2014,07,22,09,09,18.20
2014,07,22,09,10,18.30
2014,07,22,09,11,18.40
2014,07,22,09,12,18.50
2014,07,22,09,13,18.60
2014,07,22,09,14,18.60
2014,07,22,09,15,18.70
2014,07,22,09,16,18.80
2014,07,22,09,17,18.90
2014,07,22,09,18,18.90
2014,07,22,09,19,18.90
2014,07,22,09,20,18.90
2014,07,22,09,21,18.90
2014,07,22,09,22,19.00
2014,07,22,09,23,19.10
2014,07,22,09,24,19.10
2014,07,22,09,25,19.20
2014,07,22,09,26,19.30
2014,07,22,09,27,19.30
2014,07,22,09,28,19.40
2014,07,22,09,29,19.40
2014,07,22,09,30,19.40
2014,07,22,09,31,19.40
2014,07,22,09,32,19.40
2014,07,22,09,33,19.30
2014,07,22,09,34,19.30
2014,07,22,09,35,19.30
2014,07,22,09,36,19.20
2014,07,22,09,37,19.10
2014,07,22,09,38,19.10
2014,07,22,09,39,19.20
2014,07,22,09,40,19.20
2014,07,22,09,41,19.20
2014,07,22,09,42,19.20
2014,07,22,09,43,19.30
2014,07,22,09,44,19.30
2014,07,22,09,45,19.20
2014,07,22,09,46,19.10
2014,07,22,09,47,19.20
2014,07,22,09,48,19.30
2014,07,22,09,49,19.30
2014,07,22,09,50,19.30
2014,07,22,09,51,19.30
2014,07,22,09,52,19.30
2014,07,22,09,53,19.30
2014,07,22,09,54,19.30
2014,07,22,09,55,19.40
2014,07,22,09,56,19.40
2014,07,22,09,57,19.50
2014,07,22,09,58,19.60
2014,07,22,09,59,19.60
2014,07,22,10,00,19.70
2014,07,22,10,01,19.80
2014,07,22,10,02,19.80
2014,07,22,10,03,19.90
2014,07,22,10,04,20.10
2014,07,22,10,05,20.20
2014,07,22,10,06,20.30
2014,07,22,10,07,20.50
2014,07,22,10,08,20.50
2014,07,22,10,09,20.50
2014,07,22,10,10,20.50
2014,07,22,10,11,20.50
2014,07,22,10,12,20.50
2014,07,22,10,13,20.50
2014,07,22,10,14,20.60
2014,07,22,10,15,20.60
2014,07,22,10,16,20.70
2014,07,22,10,17,20.80
2014,07,22,10,18,20.80
2014,07,22,10,19,20.90
2014,07,22,10,20,20.90
2014,07,22,10,21,20.80
2014,07,22,10,22,20.60
2014,07,22,10,23,20.50
2014,07,22,10,24,20.40
2014,07,22,10,25,20.40
2014,07,22,10,26,20.30
2014,07,22,10,27,20.20
2014,07,22,10,28,20.20
2014,07,22,10,29,20.10
2014,07,22,10,30,20.10
2014,07,22,10,31,20.10
2014,07,22,10,32,20.10
2014,07,22,10,33,20.00
2014,07,22,10,34,19.90
2014,07,22,10,35,19.90
2014,07,22,10,36,19.90
2014,07,22,10,37,19.90
2014,07,22,10,38,20.10
2014,07,22,10,39,20.20
2014,07,22,10,40,20.20
2014,07,22,10,41,20.20
2014,07,22,10,42,20.30
2014,07,22,10,43,20.40
2014,07,22,10,44,20.40
2014,07,22,10,45,20.40
2014,07,22,10,46,20.40
2014,07,22,10,47,20.30
2014,07,22,10,48,20.20
2014,07,22,10,49,20.10
2014,07,22,10,50,19.90
2014,07,22,10,51,19.90
2014,07,22,10,52,19.90
2014,07,22,10,53,19.90
2014,07,22,10,54,20.00
2014,07,22,10,55,20.10
2014,07,22,10,56,20.20
2014,07,22,10,57,20.20
2014,07,22,10,58,20.30
2014,07,22,10,59,20.30
2014,07,22,11,00,20.20
2014,07,22,11,01,20.20
2014,07,22,11,02,20.30
2014,07,22,11,03,20.40
2014,07,22,11,04,20.50
2014,07,22,11,05,20.60
2014,07,22,11,06,20.70
2014,07,22,11,07,20.80
2014,07,22,11,08,20.90
2014,07,22,11,09,20.80
2014,07,22,11,10,20.70
2014,07,22,11,11,20.40
2014,07,22,11,12,20.20
2014,07,22,11,13,20.00
2014,07,22,11,14,20.00
2014,07,22,11,15,20.10
2014,07,22,11,16,19.90
2014,07,22,11,17,19.90
2014,07,22,11,18,19.90
2014,07,22,11,19,19.80
2014,07,22,11,20,19.70
2014,07,22,11,21,19.80
2014,07,22,11,22,19.80
2014,07,22,11,23,19.80
2014,07,22,11,24,20.00
2014,07,22,11,25,20.20
2014,07,22,11,26,20.40
2014,07,22,11,27,20.50
2014,07,22,11,28,20.60
2014,07,22,11,29,20.60
2014,07,22,11,30,20.50
2014,07,22,11,31,20.50
2014,07,22,11,32,20.30
2014,07,22,11,33,20.20
2014,07,22,11,34,20.00
2014,07,22,11,35,19.90
2014,07,22,11,36,19.80
2014,07,22,11,37,19.70
2014,07,22,11,38,19.70
2014,07,22,11,39,19.80
2014,07,22,11,40,19.90
2014,07,22,11,41,19.90
2014,07,22,11,42,19.90
2014,07,22,11,43,19.90
2014,07,22,11,44,19.90
2014,07,22,11,45,19.90
2014,07,22,11,46,20.10
2014,07,22,11,47,20.20
2014,07,22,11,48,20.40
2014,07,22,11,49,20.40
2014,07,22,11,50,20.30
2014,07,22,11,51,20.30
2014,07,22,11,52,20.30
2014,07,22,11,53,20.20
2014,07,22,11,54,20.20
2014,07,22,11,55,20.20
2014,07,22,11,56,20.20
2014,07,22,11,57,20.10
2014,07,22,11,58,19.90
2014,07,22,11,59,19.90
2014,07,22,12,00,19.90
2014,07,22,12,01,19.90
2014,07,22,12,02,19.90
2014,07,22,12,03,20.00
2014,07,22,12,04,20.10
2014,07,22,12,05,20.00
2014,07,22,12,06,19.90
2014,07,22,12,07,19.90
2014,07,22,12,08,19.90
2014,07,22,12,09,20.00
2014,07,22,12,10,20.20
2014,07,22,12,11,20.20
2014,07,22,12,12,20.30
2014,07,22,12,13,20.50
2014,07,22,12,14,20.60
2014,07,22,12,15,20.70
2014,07,22,12,16,20.80
2014,07,22,12,17,20.70
2014,07,22,12,18,20.60
2014,07,22,12,19,20.50
2014,07,22,12,20,20.40
2014,07,22,12,21,20.20
2014,07,22,12,22,20.20
2014,07,22,12,23,20.20
2014,07,22,12,24,20.10
2014,07,22,12,25,20.00
2014,07,22,12,26,19.90
2014,07,22,12,27,19.90
2014,07,22,12,28,19.90
2014,07,22,12,29,19.90
2014,07,22,12,30,19.80
2014,07,22,12,31,19.60
2014,07,22,12,32,19.60
2014,07,22,12,33,19.50
2014,07,22,12,34,19.50
2014,07,22,12,35,19.40
2014,07,22,12,36,19.40
2014,07,22,12,37,19.50
2014,07,22,12,38,19.50
2014,07,22,12,39,19.40
2014,07,22,12,40,19.30
2014,07,22,12,41,19.30
2014,07,22,12,42,19.30
2014,07,22,12,43,19.30
2014,07,22,12,44,19.40
2014,07,22,12,45,19.50
2014,07,22,12,46,19.60
2014,07,22,12,47,19.70
2014,07,22,12,48,19.90
2014,07,22,12,49,19.90
2014,07,22,12,50,19.90
2014,07,22,12,51,19.90
2014,07,22,12,52,19.80
2014,07,22,12,53,19.60
2014,07,22,12,54,19.60
2014,07,22,12,55,19.50
2014,07,22,12,56,19.40
2014,07,22,12,57,19.30
2014,07,22,12,58,19.20
2014,07,22,12,59,19.10
2014,07,22,13,00,19.10
2014,07,22,13,01,19.10
2014,07,22,13,02,19.10
2014,07,22,13,03,19.20
2014,07,22,13,04,19.30
2014,07,22,13,05,19.30
2014,07,22,13,06,19.40
2014,07,22,13,07,19.40
2014,07,22,13,08,19.40
2014,07,22,13,09,19.50
2014,07,22,13,10,19.50
2014,07,22,13,11,19.50
2014,07,22,13,12,19.60
2014,07,22,13,13,19.50
2014,07,22,13,14,19.40
2014,07,22,13,15,19.20
2014,07,22,13,16,19.20
2014,07,22,13,17,19.30
2014,07,22,13,18,19.40
2014,07,22,13,19,19.40
2014,07,22,13,20,19.40
2014,07,22,13,21,19.50
2014,07,22,13,22,19.50
2014,07,22,13,23,19.60
2014,07,22,13,24,19.60
2014,07,22,13,25,19.50
2014,07,22,13,26,19.40
2014,07,22,13,27,19.40
2014,07,22,13,28,19.40
2014,07,22,13,29,19.50
2014,07,22,13,30,19.40
2014,07,22,13,31,19.30
2014,07,22,13,32,19.10
2014,07,22,13,33,19.00
2014,07,22,13,34,18.90
2014,07,22,13,35,18.90
2014,07,22,13,36,18.90
2014,07,22,13,37,18.90
2014,07,22,13,38,18.90
2014,07,22,13,39,19.10
2014,07,22,13,40,19.10
2014,07,22,13,41,19.10
2014,07,22,13,42,19.30
2014,07,22,13,43,19.30
2014,07,22,13,44,19.40
2014,07,22,13,45,19.40
2014,07,22,13,46,19.40
2014,07,22,13,47,19.40
2014,07,22,13,48,19.40
2014,07,22,13,49,19.50
2014,07,22,13,50,19.60
2014,07,22,13,51,19.70
2014,07,22,13,52,19.90
2014,07,22,13,53,19.80
2014,07,22,13,54,19.60
2014,07,22,13,55,19.40
2014,07,22,13,56,19.30
2014,07,22,13,57,19.10
2014,07,22,13,58,19.10
2014,07,22,13,59,19.20
2014,07,22,14,00,19.30
2014,07,22,14,01,19.20
2014,07,22,14,02,19.10
2014,07,22,14,03,19.10
2014,07,22,14,04,19.10
2014,07,22,14,05,19.30
2014,07,22,14,06,19.40
2014,07,22,14,07,19.40
2014,07,22,14,08,19.60
2014,07,22,14,09,19.70
2014,07,22,14,10,19.70
2014,07,22,14,11,19.70
2014,07,22,14,12,19.50
2014,07,22,14,13,19.40
2014,07,22,14,14,19.20
2014,07,22,14,15,19.10
2014,07,22,14,16,19.00
2014,07,22,14,17,18.90
2014,07,22,14,18,19.00
2014,07,22,14,19,19.10
2014,07,22,14,20,19.00
2014,07,22,14,21,19.00
2014,07,22,14,22,19.10
2014,07,22,14,23,19.00
2014,07,22,14,24,18.90
2014,07,22,14,25,18.80
2014,07,22,14,26,18.70
2014,07,22,14,27,18.60
2014,07,22,14,28,18.60
2014,07,22,14,29,18.60
2014,07,22,14,30,18.70
2014,07,22,14,31,18.70
2014,07,22,14,32,18.90
2014,07,22,14,33,18.90
2014,07,22,14,34,18.90
2014,07,22,14,35,18.90
2014,07,22,14,36,18.80
2014,07,22,14,37,18.80
2014,07,22,14,38,18.70
2014,07,22,14,39,18.60
2014,07,22,14,40,18.50
2014,07,22,14,41,18.50
2014,07,22,14,42,18.60
2014,07,22,14,43,18.70
2014,07,22,14,44,18.70
2014,07,22,14,45,18.70
2014,07,22,14,46,18.60
2014,07,22,14,47,18.70
2014,07,22,14,48,18.70
2014,07,22,14,49,18.70
2014,07,22,14,50,18.80
2014,07,22,14,51,18.70
2014,07,22,14,52,18.70
2014,07,22,14,53,18.80
2014,07,22,14,54,18.90
2014,07,22,14,55,18.90
2014,07,22,14,56,18.90
2014,07,22,14,57,18.90
2014,07,22,14,58,18.90
2014,07,22,14,59,18.90
2014,07,22,15,00,18.70
2014,07,22,15,01,18.50
2014,07,22,15,02,18.50
2014,07,22,15,03,18.60
2014,07,22,15,04,18.60
2014,07,22,15,05,18.50
2014,07,22,15,06,18.50
2014,07,22,15,07,18.50
2014,07,22,15,08,18.50
2014,07,22,15,09,18.50
2014,07,22,15,10,18.50
2014,07,22,15,11,18.60
2014,07,22,15,12,18.60
2014,07,22,15,13,18.70
2014,07,22,15,14,18.60
2014,07,22,15,15,18.50
2014,07,22,15,16,18.40
2014,07,22,15,17,18.40
2014,07,22,15,18,18.40
2014,07,22,15,19,18.30
2014,07,22,15,20,18.20
2014,07,22,15,21,18.10
2014,07,22,15,22,18.10
2014,07,22,15,23,18.20
2014,07,22,15,24,18.20
2014,07,22,15,25,18.20
2014,07,22,15,26,18.20
2014,07,22,15,27,18.40
2014,07,22,15,28,18.50
2014,07,22,15,29,18.60
2014,07,22,15,30,18.50
2014,07,22,15,31,18.50
2014,07,22,15,32,18.50
2014,07,22,15,33,18.40
2014,07,22,15,34,18.30
2014,07,22,15,35,18.30
2014,07,22,15,36,18.20
2014,07,22,15,37,18.20
2014,07,22,15,38,18.40
2014,07,22,15,39,18.50
2014,07,22,15,40,18.60
2014,07,22,15,41,18.80
2014,07,22,15,42,18.90
2014,07,22,15,43,19.00
2014,07,22,15,44,19.10
2014,07,22,15,45,19.10
2014,07,22,15,46,19.10
2014,07,22,15,47,19.10
2014,07,22,15,48,19.10
2014,07,22,15,49,19.10
2014,07,22,15,50,19.00
2014,07,22,15,51,18.90
2014,07,22,15,52,18.90
2014,07,22,15,53,18.90
2014,07,22,15,54,18.90
2014,07,22,15,55,18.80
2014,07,22,15,56,18.70
2014,07,22,15,57,18.70
2014,07,22,15,58,18.60
2014,07,22,15,59,18.40
2014,07,22,16,00,18.40
2014,07,22,16,01,18.30
2014,07,22,16,02,18.30
2014,07,22,16,03,18.30
2014,07,22,16,04,18.30
2014,07,22,16,05,18.30
2014,07,22,16,06,18.20
2014,07,22,16,07,18.30
2014,07,22,16,08,18.30
2014,07,22,16,09,18.40
2014,07,22,16,10,18.50
2014,07,22,16,11,18.50
2014,07,22,16,12,18.50
2014,07,22,16,13,18.30
2014,07,22,16,14,18.10
2014,07,22,16,15,18.10
2014,07,22,16,16,18.00
2014,07,22,16,17,17.90
2014,07,22,16,18,18.00
2014,07,22,16,19,18.10
2014,07,22,16,20,18.10
2014,07,22,16,21,18.20
2014,07,22,16,22,18.20
2014,07,22,16,23,18.20
2014,07,22,16,24,18.30
2014,07,22,16,25,18.30
2014,07,22,16,26,18.40
2014,07,22,16,27,18.50
2014,07,22,16,28,18.50
2014,07,22,16,29,18.40
2014,07,22,16,30,18.30
2014,07,22,16,31,18.20
2014,07,22,16,32,18.20
2014,07,22,16,33,18.10
2014,07,22,16,34,18.00
2014,07,22,16,35,17.90
2014,07,22,16,36,17.90
2014,07,22,16,37,17.70
2014,07,22,16,38,17.60
2014,07,22,16,39,17.50
2014,07,22,16,40,17.40
2014,07,22,16,41,17.30
2014,07,22,16,42,17.30
2014,07,22,16,43,17.30
2014,07,22,16,44,17.30
2014,07,22,16,45,17.30
2014,07,22,16,46,17.30
2014,07,22,16,47,17.20
2014,07,22,16,48,17.20
2014,07,22,16,49,17.20
2014,07,22,16,50,17.30
2014,07,22,16,51,17.30
2014,07,22,16,52,17.30
2014,07,22,16,53,17.20
2014,07,22,16,54,17.20
2014,07,22,16,55,17.20
2014,07,22,16,56,17.20
2014,07,22,16,57,17.10
2014,07,22,16,58,17.10
2014,07,22,16,59,17.10
2014,07,22,17,00,17.10
2014,07,22,17,01,17.10
2014,07,22,17,02,17.00
2014,07,22,17,03,17.00
2014,07,22,17,04,17.10
2014,07,22,17,05,17.10
2014,07,22,17,06,17.10
2014,07,22,17,07,17.20
2014,07,22,17,08,17.30
2014,07,22,17,09,17.30
2014,07,22,17,10,17.30
2014,07,22,17,11,17.20
2014,07,22,17,12,17.30
2014,07,22,17,13,17.30
2014,07,22,17,14,17.30
2014,07,22,17,15,17.20
2014,07,22,17,16,17.20
2014,07,22,17,17,17.30
2014,07,22,17,18,17.20
2014,07,22,17,19,17.20